Location: Limerick
(52.6650°N, 8.6230°W)
Time: 20:39:59
(UTC+01:00)

ISS - Pass Details

Date: 24 May 2017
Orbit: 402 x 409 km, 51.6° (Epoch: 25 May)

Event Time Altitude Azimuth Distance (km) Brightness Sun altitude
Rises 22:25:47 0° 203° (SSW) 2,323 -0.2 -6.1°
Reaches altitude 10° 22:28:29 10° 179° (S) 1,466 -1.4 -6.4°
Maximum altitude 22:30:26 15° 142° (SE) 1,205 -2.1 -6.6°
Drops below altitude 10° 22:32:24 10° 106° (ESE) 1,469 -1.5 -6.8°
Sets 22:35:07 0° 82° (E) 2,332 -0.3 -7.1°
